When you browse on this site, cookies collect data to enhance your experience and personalize the content and advertising you see.
Visit our Privacy Policy to learn more. By continuing to use the site, you agree to this use of cookies and data.
  • In Romania
  • List of Countries
  • For 7 days
  • Water Temperature
  • Satellite Maps
  • Weather Map
  • Weather Widgets
  • user-avatar
    Login

    Hourly Weather Chios

    Today, 24 May, Friday

    Time Temperature Precipitation Wind Pressure Humidity
    00:00 +19°C° 0 mm 0 mps 751 mmHg 70%
    01:00 +21°C° 0 mm 1 mps 751 mmHg 70%
    02:00 +21°C° 0 mm 1 mps 751 mmHg 69%
    03:00 +21°C° 0 mm 1 mps 751 mmHg 71%
    04:00 +20°C° 0 mm 1 mps 751 mmHg 72%
    05:00 +20°C° 0 mm 1 mps 751 mmHg 73%
    06:00 +21°C° 0 mm 1 mps 751 mmHg 71%
    07:00 +21°C° 0 mm 2 mps 751 mmHg 68%
    08:00 +21°C° 0 mm 2 mps 752 mmHg 65%
    09:00 +23°C° 0 mm 2 mps 752 mmHg 64%
    10:00 +22°C° 0 mm 3 mps 752 mmHg 63%
    11:00 +24°C° 0 mm 3 mps 752 mmHg 62%
    12:00 +24°C° 0 mm 3 mps 752 mmHg 62%
    13:00 +23°C° 0 mm 4 mps 752 mmHg 62%
    14:00 +23°C° 0 mm 4 mps 752 mmHg 62%
    15:00 +23°C° 0 mm 4 mps 752 mmHg 64%
    16:00 +22°C° 0 mm 4 mps 752 mmHg 66%
    17:00 +22°C° 0 mm 4 mps 752 mmHg 67%
    18:00 +21°C° 0 mm 3 mps 752 mmHg 71%
    19:00 +20°C° 0 mm 2 mps 753 mmHg 76%
    20:00 +19°C° 0 mm 2 mps 753 mmHg 80%
    21:00 +19°C° 0 mm 2 mps 753 mmHg 81%
    22:00 +19°C° 0 mm 2 mps 753 mmHg 81%
    23:00 +19°C° 0 mm 2 mps 754 mmHg 82%

    Tomorrow, 25 May, Saturday

    Time Temperature Precipitation Wind Pressure Humidity
    00:00 +19°C° 0 mm 2 mps 754 mmHg 82%
    01:00 +19°C° 0 mm 1 mps 754 mmHg 82%
    02:00 +19°C° 0 mm 1 mps 754 mmHg 82%
    03:00 +19°C° 0 mm 1 mps 754 mmHg 81%
    04:00 +19°C° 0 mm 1 mps 754 mmHg 81%
    05:00 +19°C° 0 mm 1 mps 754 mmHg 81%
    06:00 +19°C° 0 mm 2 mps 754 mmHg 75%
    07:00 +20°C° 0 mm 2 mps 755 mmHg 70%
    08:00 +21°C° 0 mm 2 mps 755 mmHg 65%
    09:00 +22°C° 0 mm 3 mps 755 mmHg 62%
    10:00 +24°C° 0 mm 3 mps 756 mmHg 59%
    11:00 +25°C° 0 mm 3 mps 756 mmHg 56%
    12:00 +25°C° 0 mm 3 mps 756 mmHg 55%
    13:00 +25°C° 0 mm 3 mps 756 mmHg 54%
    14:00 +25°C° 0 mm 3 mps 756 mmHg 54%
    15:00 +25°C° 0 mm 3 mps 755 mmHg 55%
    16:00 +25°C° 0 mm 3 mps 755 mmHg 56%
    17:00 +24°C° 0 mm 3 mps 755 mmHg 58%
    18:00 +23°C° 0 mm 2 mps 755 mmHg 61%
    19:00 +23°C° 0 mm 1 mps 755 mmHg 65%
    20:00 +22°C° 0 mm 1 mps 755 mmHg 69%
    21:00 +21°C° 0 mm 1 mps 756 mmHg 69%
    22:00 +21°C° 0 mm 1 mps 756 mmHg 69%
    23:00 +21°C° 0 mm 1 mps 756 mmHg 69%

    Day after tomorrow, 26 May, Sunday

    Time Temperature Precipitation Wind Pressure Humidity
    00:00 +21°C° 0 mm 1 mps 756 mmHg 70%
    01:00 +18°C° 0 mm 0 mps 756 mmHg 71%
    02:00 +18°C° 0 mm 0 mps 755 mmHg 72%
    03:00 +20°C° 0 mm 1 mps 755 mmHg 72%
    04:00 +20°C° 0 mm 1 mps 755 mmHg 72%
    05:00 +20°C° 0 mm 1 mps 755 mmHg 72%
    06:00 +21°C° 0 mm 1 mps 756 mmHg 67%
    07:00 +22°C° 0 mm 1 mps 756 mmHg 63%
    08:00 +23°C° 0 mm 1 mps 756 mmHg 58%
    09:00 +24°C° 0 mm 1 mps 756 mmHg 54%
    10:00 +25°C° 0 mm 2 mps 756 mmHg 50%
    11:00 +26°C° 0 mm 2 mps 756 mmHg 46%
    12:00 +27°C° 0 mm 2 mps 756 mmHg 45%
    13:00 +27°C° 0 mm 2 mps 756 mmHg 43%
    14:00 +28°C° 0 mm 2 mps 756 mmHg 42%
    15:00 +27°C° 0 mm 3 mps 756 mmHg 43%
    16:00 +27°C° 0 mm 3 mps 755 mmHg 45%
    17:00 +27°C° 0 mm 3 mps 755 mmHg 47%
    18:00 +25°C° 0 mm 3 mps 755 mmHg 52%
    19:00 +24°C° 0 mm 3 mps 755 mmHg 58%
    20:00 +22°C° 0 mm 3 mps 755 mmHg 63%
    21:00 +22°C° 0 mm 3 mps 756 mmHg 64%
    22:00 +21°C° 0 mm 3 mps 756 mmHg 65%
    23:00 +21°C° 0 mm 3 mps 756 mmHg 66%

    27 May, Monday

    Time Temperature Precipitation Wind Pressure Humidity
    00:00 +21°C° 0 mm 3 mps 755 mmHg 67%
    01:00 +21°C° 0 mm 2 mps 755 mmHg 68%
    02:00 +21°C° 0 mm 2 mps 755 mmHg 68%
    03:00 +21°C° 0 mm 2 mps 755 mmHg 70%
    04:00 +21°C° 0 mm 2 mps 755 mmHg 71%
    05:00 +21°C° 0 mm 2 mps 755 mmHg 73%
    06:00 +23°C° 0 mm 2 mps 755 mmHg 69%
    07:00 +24°C° 0 mm 1 mps 755 mmHg 65%
    08:00 +25°C° 0 mm 1 mps 755 mmHg 61%
    09:00 +26°C° 0 mm 1 mps 755 mmHg 57%
    10:00 +27°C° 0 mm 1 mps 755 mmHg 53%
    11:00 +28°C° 0 mm 1 mps 755 mmHg 50%
    12:00 +29°C° 0 mm 1 mps 755 mmHg 47%
    13:00 +30°C° 0 mm 1 mps 754 mmHg 45%
    14:00 +31°C° 0 mm 1 mps 754 mmHg 42%
    15:00 +30°C° 0 mm 1 mps 754 mmHg 45%
    16:00 +29°C° 0 mm 2 mps 754 mmHg 48%
    17:00 +28°C° 0 mm 2 mps 754 mmHg 51%
    18:00 +27°C° 0 mm 1 mps 754 mmHg 55%
    19:00 +26°C° 0 mm 1 mps 754 mmHg 60%
    20:00 +22°C° 0 mm 0 mps 754 mmHg 64%
    21:00 +24°C° 0 mm 1 mps 754 mmHg 65%
    22:00 +24°C° 0 mm 1 mps 754 mmHg 65%
    23:00 +23°C° 0 mm 2 mps 754 mmHg 65%

    28 May, Tuesday

    Time Temperature Precipitation Wind Pressure Humidity
    00:00 +23°C° 0 mm 2 mps 754 mmHg 64%
    01:00 +23°C° 0 mm 2 mps 754 mmHg 63%
    02:00 +22°C° 0 mm 3 mps 753 mmHg 63%
    03:00 +22°C° 0 mm 3 mps 753 mmHg 61%
    04:00 +21°C° 0 mm 2 mps 753 mmHg 59%
    05:00 +21°C° 0 mm 2 mps 753 mmHg 57%
    06:00 +24°C° 0 mm 2 mps 753 mmHg 54%
    07:00 +25°C° 0 mm 3 mps 753 mmHg 51%
    08:00 +26°C° 0 mm 3 mps 754 mmHg 47%
    09:00 +27°C° 0 mm 3 mps 754 mmHg 45%
    10:00 +28°C° 0 mm 4 mps 754 mmHg 43%
    11:00 +29°C° 0 mm 4 mps 754 mmHg 41%
    12:00 +28°C° 0 mm 5 mps 754 mmHg 43%
    13:00 +28°C° 0 mm 6 mps 753 mmHg 46%
    14:00 +28°C° 0 mm 6 mps 753 mmHg 48%
    15:00 +27°C° 0 mm 6 mps 753 mmHg 51%
    16:00 +26°C° 0 mm 6 mps 753 mmHg 53%
    17:00 +26°C° 0 mm 5 mps 753 mmHg 56%
    18:00 +25°C° 0 mm 5 mps 753 mmHg 61%
    19:00 +23°C° 0 mm 5 mps 754 mmHg 66%
    20:00 +22°C° 0 mm 5 mps 754 mmHg 71%
    21:00 +22°C° 0 mm 5 mps 754 mmHg 73%
    22:00 +21°C° 0 mm 5 mps 754 mmHg 75%
    23:00 +21°C° 0 mm 5 mps 754 mmHg 77%

    29 May, Wednesday

    Time Temperature Precipitation Wind Pressure Humidity
    00:00 +21°C° 0 mm 5 mps 754 mmHg 78%
    01:00 +21°C° 0 mm 5 mps 754 mmHg 78%
    02:00 +21°C° 0 mm 5 mps 754 mmHg 79%
    03:00 +20°C° 0 mm 5 mps 754 mmHg 81%
    04:00 +20°C° 0 mm 5 mps 754 mmHg 83%
    05:00 +20°C° 0 mm 5 mps 754 mmHg 85%
    06:00 +21°C° 0 mm 5 mps 755 mmHg 82%
    07:00 +21°C° 0 mm 5 mps 755 mmHg 80%
    08:00 +22°C° 0 mm 5 mps 755 mmHg 77%
    09:00 +23°C° 0 mm 4 mps 756 mmHg 74%
    10:00 +25°C° 0 mm 4 mps 756 mmHg 71%
    11:00 +26°C° 0 mm 4 mps 756 mmHg 67%
    12:00 +26°C° 0 mm 3 mps 756 mmHg 66%
    13:00 +26°C° 0 mm 3 mps 756 mmHg 64%
    14:00 +26°C° 0 mm 2 mps 756 mmHg 63%
    15:00 +26°C° 0 mm 2 mps 756 mmHg 63%
    16:00 +26°C° 0 mm 2 mps 756 mmHg 63%
    17:00 +26°C° 0 mm 1 mps 756 mmHg 63%
    18:00 +25°C° 0 mm 1 mps 756 mmHg 67%
    19:00 +24°C° 0 mm 1 mps 756 mmHg 70%
    20:00 +21°C° 0 mm 0 mps 756 mmHg 74%
    21:00 +20°C° 0 mm 0 mps 756 mmHg 74%
    22:00 +20°C° 0 mm 0 mps 756 mmHg 75%
    23:00 +20°C° 0 mm 0 mps 756 mmHg 75%
    Show more